NIGERIASAT 2

Satellite information

Favourite Embed

Satellite Type and Status

PAYLOADIN ORBIT

Key statistics

Satellite NIGERIASAT 2 at a glance.

Uptime

5181

Days in orbit

Revolutions

≈ 14.7

Per day

Orbit

SSO

Sun Synchronous Orbit

Inclination

97.9

Latest

Satellite identification and parameters

Extended collection of information and parameters for NIGERIASAT 2.

Object identification

Identified? True

Debris? False

Object name: NIGERIASAT 2

International designator: 2011-044B

Object number (NORAD): 37789

Object ID (CCSDS): 37789

Country: NIGERIA (NIG)

Current information (Y/N): Y

RCS size: MEDIUM

Orbital parameters

Period: 97.947 minutes

Inclination: 97.852 deg

SMA: 7038.62 km

Apoapsis: 682.041 km

Periapsis: 638.929 km

RAAN: 276.5123 deg

Eccentricy: 0.00306253

Argument of periapsis: 158.3539 deg

Mean anomaly: 286.941 deg

Mean motion: 14.70183428 rev/day

Mean motion (dot): 0.00000865 rev/day2

B* drag term: 0.00015052212 1/REarth

Two-line elements (TLE)

Creation date: Oct. 23, 2025, 2:46 a.m.

Reference frame: TEME

Reference center: EARTH

Epoch: Oct. 22, 2025, 11:34 p.m. UTC

TLE line 0: 0 NIGERIASAT 2

TLE line 1: 1 37789U 11044B 25295.98226821 .00000865 00000-0 15052-3 0 9990

TLE line 2: 2 37789 97.8520 276.5123 0030625 158.3539 286.9410 14.70183428755716

Live tracking on map

Real-time ground track for satellite NIGERIASAT 2.

In-orbit conjunctions

There are no conjunctions computed for NIGERIASAT 2, at the moment. Check back to stay up to date, as we update our databases every day.

Go to all conjunctions

Associated space launch

NIGERIASAT 2 was lifted into orbit during the mission ‘Dnepr 1 | Sich-2’, on board a Dnepr space rocket.

The launch took place on Aug. 17, 2011, 7:12 a.m. from 370/13.

For more information about the launch, click the button.

Launch to space Dnepr 1 | Sich-2
Dnepr 1 | Sich-2

Agency: N/A

Status: Launch Successful

Launch date: Aug. 17, 2011, 7:12 a.m. UTC

Rocket: Dnepr

Launch pad: 370/13

Location: Dombarovskiy, Russian Federation

...

Latest news about this satellite

There are no fresh news available about this satellite. Check back as we update our databases every day.


Newsletter sign-up

Weekly statistics, charts and insights to help you stay on top of the space industry.